{"data":{"norad_id":49214,"intl_designator":"2021-083AE","name":"ONEWEB-0350","alt_names":[],"object_type":"PAYLOAD","status":"ACTIVE","operator":null,"country":"UK","launch_date":"2021-09-14","launch_site_code":"TYMSC","launch_vehicle":null,"mission":null,"orbit_class":"UNKNOWN","rcs_meters":null,"size_class":null,"mass_kg":null,"dimensions":null,"purposes":["comms"],"wikipedia_slug":null,"has_3d_model":false,"image_url":null,"decayed_at":null,"tle_current":{"epoch":"2026-09-19T21:28:55.192800Z","epoch_age_seconds":78107,"freshness":"FRESH","line1":"1 49214U 21083AE  26262.89508325 -.00000171  00000+0 -50204-3 0  9996","line2":"2 49214  87.8915 301.3836 0002742  78.3670 281.7767 13.13469311243368","mean_motion":13.13469311,"eccentricity":0.0002742,"inclination_deg":87.8915,"raan_deg":301.3836,"arg_perigee_deg":78.367,"mean_anomaly_deg":281.7767,"bstar":-0.00050204,"rev_number":24336,"period_min":109.63331902317,"perigee_km":1207.6874498996,"apogee_km":1211.8486570309,"semimajor_km":7587.9050534653,"source":"CELESTRAK","updated_at":"2026-09-20T09:00:44.666646Z"}}}